Tracking 29892 objects as of 21-Nov-2024
HD Live streaming from Space Station
objects crossing your sky now

THORAD AGENA D DEB

Track THORAD AGENA D DEB now!
10-day predictions


NORAD ID: 4645
Int'l Code: 1970-025AD
Perigee: 1,069.8 km
Apogee: 1,575.8 km
Inclination: 99.9 °
Period: 111.9 minutes
Semi major axis: 7693 km
RCS: 0.0946 m2 (small)
Launch date: April 8, 1970
Source: United States (US)
Launch site: AIR FORCE WESTERN TEST RANGE (AFWTR)

Note: This is SATELLITE DEBRIS
Your satellite tracking list
Your tracking list is empty




NASA's NSSDC Master Catalog

Two Line Element Set (TLE):
1 04645U 70025AD  24325.56907779  .00000092  00000-0  40749-3 0  9997
2 04645  99.9379  66.9074 0328852  71.0572  45.3388 12.86449221561663
Source of the keplerian elements: AFSPC